Year,Month,Day,Hour,Minute,Value (Times are PST for temperature in C)
2017,02,14,00,00,0.40
2017,02,14,00,01,0.40
2017,02,14,00,02,0.40
2017,02,14,00,03,0.40
2017,02,14,00,04,0.30
2017,02,14,00,05,0.30
2017,02,14,00,06,0.30
2017,02,14,00,07,0.30
2017,02,14,00,08,0.30
2017,02,14,00,09,0.30
2017,02,14,00,10,0.30
2017,02,14,00,11,0.30
2017,02,14,00,12,0.30
2017,02,14,00,13,0.30
2017,02,14,00,14,0.30
2017,02,14,00,15,0.30
2017,02,14,00,16,0.30
2017,02,14,00,17,0.20
2017,02,14,00,18,0.20
2017,02,14,00,19,0.20
2017,02,14,00,20,0.20
2017,02,14,00,21,0.20
2017,02,14,00,22,0.20
2017,02,14,00,23,0.20
2017,02,14,00,24,0.20
2017,02,14,00,25,0.20
2017,02,14,00,26,0.20
2017,02,14,00,27,0.10
2017,02,14,00,28,0.10
2017,02,14,00,29,0.10
2017,02,14,00,30,0.10
2017,02,14,00,31,0.10
2017,02,14,00,32,0.10
2017,02,14,00,33,0.10
2017,02,14,00,34,0.10
2017,02,14,00,35,0.10
2017,02,14,00,36,0.10
2017,02,14,00,37,0.10
2017,02,14,00,38,0.10
2017,02,14,00,39,0.10
2017,02,14,00,40,0.10
2017,02,14,00,41,0.10
2017,02,14,00,42,0.10
2017,02,14,00,43,0.10
2017,02,14,00,44,0.10
2017,02,14,00,45,0.10
2017,02,14,00,46,0.10
2017,02,14,00,47,0.10
2017,02,14,00,48,0.10
2017,02,14,00,49,0.10
2017,02,14,00,50,0.10
2017,02,14,00,51,0.10
2017,02,14,00,52,0.10
2017,02,14,00,53,0.10
2017,02,14,00,54,0.10
2017,02,14,00,55,0.10
2017,02,14,00,56,0.10
2017,02,14,00,57,0.10
2017,02,14,00,58,0.10
2017,02,14,00,59,0.10
2017,02,14,01,00,0.10
2017,02,14,01,01,0.10
2017,02,14,01,02,0.10
2017,02,14,01,03,0.10
2017,02,14,01,04,0.10
2017,02,14,01,05,0.10
2017,02,14,01,06,0.10
2017,02,14,01,07,0.10
2017,02,14,01,08,0.10
2017,02,14,01,09,0.10
2017,02,14,01,10,0.10
2017,02,14,01,11,0.10
2017,02,14,01,12,0.10
2017,02,14,01,13,0.10
2017,02,14,01,14,0.10
2017,02,14,01,15,0.10
2017,02,14,01,16,0.20
2017,02,14,01,17,0.20
2017,02,14,01,18,0.20
2017,02,14,01,19,0.20
2017,02,14,01,20,0.20
2017,02,14,01,21,0.20
2017,02,14,01,22,0.20
2017,02,14,01,23,0.20
2017,02,14,01,24,0.20
2017,02,14,01,25,0.30
2017,02,14,01,26,0.30
2017,02,14,01,27,0.30
2017,02,14,01,28,0.30
2017,02,14,01,29,0.30
2017,02,14,01,30,0.30
2017,02,14,01,31,0.30
2017,02,14,01,32,0.30
2017,02,14,01,33,0.30
2017,02,14,01,34,0.30
2017,02,14,01,35,0.30
2017,02,14,01,36,0.40
2017,02,14,01,37,0.40
2017,02,14,01,38,0.40
2017,02,14,01,39,0.40
2017,02,14,01,40,0.40
2017,02,14,01,41,0.40
2017,02,14,01,42,0.40
2017,02,14,01,43,0.40
2017,02,14,01,44,0.40
2017,02,14,01,45,0.40
2017,02,14,01,46,0.40
2017,02,14,01,47,0.40
2017,02,14,01,48,0.40
2017,02,14,01,49,0.40
2017,02,14,01,50,0.40
2017,02,14,01,51,0.40
2017,02,14,01,52,0.40
2017,02,14,01,53,0.40
2017,02,14,01,54,0.40
2017,02,14,01,55,0.40
2017,02,14,01,56,0.40
2017,02,14,01,57,0.40
2017,02,14,01,58,0.40
2017,02,14,01,59,0.40
2017,02,14,02,00,0.40
2017,02,14,02,01,0.40
2017,02,14,02,02,0.40
2017,02,14,02,03,0.50
2017,02,14,02,04,0.50
2017,02,14,02,05,0.50
2017,02,14,02,06,0.50
2017,02,14,02,07,0.50
2017,02,14,02,08,0.50
2017,02,14,02,09,0.60
2017,02,14,02,10,0.60
2017,02,14,02,11,0.60
2017,02,14,02,12,0.60
2017,02,14,02,13,0.50
2017,02,14,02,14,0.50
2017,02,14,02,15,0.50
2017,02,14,02,16,0.50
2017,02,14,02,17,0.50
2017,02,14,02,18,0.50
2017,02,14,02,19,0.50
2017,02,14,02,20,0.50
2017,02,14,02,21,0.50
2017,02,14,02,22,0.50
2017,02,14,02,23,0.50
2017,02,14,02,24,0.60
2017,02,14,02,25,0.60
2017,02,14,02,26,0.60
2017,02,14,02,27,0.60
2017,02,14,02,28,0.70
2017,02,14,02,29,0.70
2017,02,14,02,30,0.80
2017,02,14,02,31,0.80
2017,02,14,02,32,0.80
2017,02,14,02,33,0.80
2017,02,14,02,34,0.80
2017,02,14,02,35,0.80
2017,02,14,02,36,0.80
2017,02,14,02,37,0.80
2017,02,14,02,38,0.80
2017,02,14,02,39,0.70
2017,02,14,02,40,0.70
2017,02,14,02,41,0.70
2017,02,14,02,42,0.70
2017,02,14,02,43,0.70
2017,02,14,02,44,0.70
2017,02,14,02,45,0.70
2017,02,14,02,46,0.70
2017,02,14,02,47,0.60
2017,02,14,02,48,0.60
2017,02,14,02,49,0.60
2017,02,14,02,50,0.60
2017,02,14,02,51,0.60
2017,02,14,02,52,0.60
2017,02,14,02,53,0.60
2017,02,14,02,54,0.60
2017,02,14,02,55,0.60
2017,02,14,02,56,0.50
2017,02,14,02,57,0.50
2017,02,14,02,58,0.50
2017,02,14,02,59,0.50
2017,02,14,03,00,0.50
2017,02,14,03,01,0.50
2017,02,14,03,02,0.40
2017,02,14,03,03,0.40
2017,02,14,03,04,0.40
2017,02,14,03,05,0.40
2017,02,14,03,06,0.40
2017,02,14,03,07,0.40
2017,02,14,03,08,0.40
2017,02,14,03,09,0.40
2017,02,14,03,10,0.40
2017,02,14,03,11,0.40
2017,02,14,03,12,0.40
2017,02,14,03,13,0.40
2017,02,14,03,14,0.40
2017,02,14,03,15,0.40
2017,02,14,03,16,0.40
2017,02,14,03,17,0.40
2017,02,14,03,18,0.40
2017,02,14,03,19,0.30
2017,02,14,03,20,0.30
2017,02,14,03,21,0.30
2017,02,14,03,22,0.30
2017,02,14,03,23,0.30
2017,02,14,03,24,0.30
2017,02,14,03,25,0.30
2017,02,14,03,26,0.30
2017,02,14,03,27,0.30
2017,02,14,03,28,0.30
2017,02,14,03,29,0.30
2017,02,14,03,30,0.30
2017,02,14,03,31,0.20
2017,02,14,03,32,0.20
2017,02,14,03,33,0.20
2017,02,14,03,34,0.30
2017,02,14,03,35,0.30
2017,02,14,03,36,0.30
2017,02,14,03,37,0.20
2017,02,14,03,38,0.20
2017,02,14,03,39,0.20
2017,02,14,03,40,0.20
2017,02,14,03,41,0.20
2017,02,14,03,42,0.30
2017,02,14,03,43,0.30
2017,02,14,03,44,0.40
2017,02,14,03,45,0.40
2017,02,14,03,46,0.40
2017,02,14,03,47,0.50
2017,02,14,03,48,0.50
2017,02,14,03,49,0.50
2017,02,14,03,50,0.50
2017,02,14,03,51,0.50
2017,02,14,03,52,0.50
2017,02,14,03,53,0.40
2017,02,14,03,54,0.40
2017,02,14,03,55,0.40
2017,02,14,03,56,0.40
2017,02,14,03,57,0.40
2017,02,14,03,58,0.30
2017,02,14,03,59,0.20
2017,02,14,04,00,0.20
2017,02,14,04,01,0.10
2017,02,14,04,02,0.10
2017,02,14,04,03,0.10
2017,02,14,04,04,0.10
2017,02,14,04,05,-0.10
2017,02,14,04,06,-0.10
2017,02,14,04,07,-0.10
2017,02,14,04,08,-0.10
2017,02,14,04,09,-0.10
2017,02,14,04,10,-0.10
2017,02,14,04,11,-0.10
2017,02,14,04,12,-0.10
2017,02,14,04,13,-0.10
2017,02,14,04,14,-0.10
2017,02,14,04,15,-0.10
2017,02,14,04,16,-0.20
2017,02,14,04,17,-0.20
2017,02,14,04,18,-0.20
2017,02,14,04,19,-0.20
2017,02,14,04,20,-0.20
2017,02,14,04,21,-0.20
2017,02,14,04,22,-0.20
2017,02,14,04,23,-0.10
2017,02,14,04,24,-0.10
2017,02,14,04,25,-0.10
2017,02,14,04,26,-0.10
2017,02,14,04,27,-0.10
2017,02,14,04,28,0.00
2017,02,14,04,29,0.10
2017,02,14,04,30,0.10
2017,02,14,04,31,0.10
2017,02,14,04,32,0.10
2017,02,14,04,33,0.20
2017,02,14,04,34,0.20
2017,02,14,04,35,0.30
2017,02,14,04,36,0.30
2017,02,14,04,37,0.40
2017,02,14,04,38,0.50
2017,02,14,04,39,0.50
2017,02,14,04,40,0.60
2017,02,14,04,41,0.60
2017,02,14,04,42,0.60
2017,02,14,04,43,0.60
2017,02,14,04,44,0.60
2017,02,14,04,45,0.70
2017,02,14,04,46,0.70
2017,02,14,04,47,0.70
2017,02,14,04,48,0.70
2017,02,14,04,49,0.70
2017,02,14,04,50,0.60
2017,02,14,04,51,0.60
2017,02,14,04,52,0.60
2017,02,14,04,53,0.60
2017,02,14,04,54,0.60
2017,02,14,04,55,0.60
2017,02,14,04,56,0.60
2017,02,14,04,57,0.60
2017,02,14,04,58,0.60
2017,02,14,04,59,0.60
2017,02,14,05,00,0.60
2017,02,14,05,01,0.50
2017,02,14,05,02,0.50
2017,02,14,05,03,0.40
2017,02,14,05,04,0.40
2017,02,14,05,05,0.40
2017,02,14,05,06,0.30
2017,02,14,05,07,0.30
2017,02,14,05,08,0.30
2017,02,14,05,09,0.30
2017,02,14,05,10,0.20
2017,02,14,05,11,0.20
2017,02,14,05,12,0.20
2017,02,14,05,13,0.20
2017,02,14,05,14,0.20
2017,02,14,05,15,0.20
2017,02,14,05,16,0.20
2017,02,14,05,17,0.20
2017,02,14,05,18,0.20
2017,02,14,05,19,0.20
2017,02,14,05,20,0.20
2017,02,14,05,21,0.20
2017,02,14,05,22,0.30
2017,02,14,05,23,0.30
2017,02,14,05,24,0.30
2017,02,14,05,25,0.40
2017,02,14,05,26,0.40
2017,02,14,05,27,0.40
2017,02,14,05,28,0.40
2017,02,14,05,29,0.40
2017,02,14,05,30,0.40
2017,02,14,05,31,0.40
2017,02,14,05,32,0.40
2017,02,14,05,33,0.40
2017,02,14,05,34,0.40
2017,02,14,05,35,0.40
2017,02,14,05,36,0.50
2017,02,14,05,37,0.50
2017,02,14,05,38,0.60
2017,02,14,05,39,0.60
2017,02,14,05,40,0.60
2017,02,14,05,41,0.60
2017,02,14,05,42,0.60
2017,02,14,05,43,0.60
2017,02,14,05,44,0.60
2017,02,14,05,45,0.70
2017,02,14,05,46,0.80
2017,02,14,05,47,0.80
2017,02,14,05,48,0.80
2017,02,14,05,49,0.80
2017,02,14,05,50,0.80
2017,02,14,05,51,0.90
2017,02,14,05,52,0.90
2017,02,14,05,53,0.90
2017,02,14,05,54,1.00
2017,02,14,05,55,1.00
2017,02,14,05,56,1.00
2017,02,14,05,57,1.00
2017,02,14,05,58,1.00
2017,02,14,05,59,1.00
2017,02,14,06,00,1.00
2017,02,14,06,01,1.10
2017,02,14,06,02,1.10
2017,02,14,06,03,1.10
2017,02,14,06,04,1.10
2017,02,14,06,05,1.10
2017,02,14,06,06,1.10
2017,02,14,06,07,1.10
2017,02,14,06,08,1.10
2017,02,14,06,09,1.10
2017,02,14,06,10,1.10
2017,02,14,06,11,1.10
2017,02,14,06,12,1.10
2017,02,14,06,13,1.10
2017,02,14,06,14,1.10
2017,02,14,06,15,1.10
2017,02,14,06,16,1.10
2017,02,14,06,17,1.10
2017,02,14,06,18,1.20
2017,02,14,06,19,1.20
2017,02,14,06,20,1.20
2017,02,14,06,21,1.20
2017,02,14,06,22,1.30
2017,02,14,06,23,1.30
2017,02,14,06,24,1.30
2017,02,14,06,25,1.30
2017,02,14,06,26,1.30
2017,02,14,06,27,1.30
2017,02,14,06,28,1.40
2017,02,14,06,29,1.40
2017,02,14,06,30,1.40
2017,02,14,06,31,1.40
2017,02,14,06,32,1.50
2017,02,14,06,33,1.50
2017,02,14,06,34,1.50
2017,02,14,06,35,1.50
2017,02,14,06,36,1.50
2017,02,14,06,37,1.50
2017,02,14,06,38,1.50
2017,02,14,06,39,1.50
2017,02,14,06,40,1.50
2017,02,14,06,41,1.50
2017,02,14,06,42,1.50
2017,02,14,06,43,1.50
2017,02,14,06,44,1.60
2017,02,14,06,45,1.60
2017,02,14,06,46,1.60
2017,02,14,06,47,1.60
2017,02,14,06,48,1.60
2017,02,14,06,49,1.70
2017,02,14,06,50,1.70
2017,02,14,06,51,1.80
2017,02,14,06,52,1.80
2017,02,14,06,53,1.80
2017,02,14,06,54,1.80
2017,02,14,06,55,1.80
2017,02,14,06,56,1.80
2017,02,14,06,57,1.80
2017,02,14,06,58,1.80
2017,02,14,06,59,1.80
2017,02,14,07,00,1.80
2017,02,14,07,01,1.80
2017,02,14,07,02,1.90
2017,02,14,07,03,1.90
2017,02,14,07,04,1.90
2017,02,14,07,05,1.90
2017,02,14,07,06,2.00
2017,02,14,07,07,2.00
2017,02,14,07,08,2.00
2017,02,14,07,09,2.00
2017,02,14,07,10,2.00
2017,02,14,07,11,2.00
2017,02,14,07,12,2.10
2017,02,14,07,13,2.10
2017,02,14,07,14,2.10
2017,02,14,07,15,2.20
2017,02,14,07,16,2.20
2017,02,14,07,17,2.20
2017,02,14,07,18,2.20
2017,02,14,07,19,2.20
2017,02,14,07,20,2.20
2017,02,14,07,21,2.20
2017,02,14,07,22,2.20
2017,02,14,07,23,2.30
2017,02,14,07,24,2.30
2017,02,14,07,25,2.30
2017,02,14,07,26,2.30
2017,02,14,07,27,2.30
2017,02,14,07,28,2.30
2017,02,14,07,29,2.30
2017,02,14,07,30,2.30
2017,02,14,07,31,2.30
2017,02,14,07,32,2.30
2017,02,14,07,33,2.30
2017,02,14,07,34,2.30
2017,02,14,07,35,2.30
2017,02,14,07,36,2.30
2017,02,14,07,37,2.30
2017,02,14,07,38,2.40
2017,02,14,07,39,2.40
2017,02,14,07,40,2.40
2017,02,14,07,41,2.40
2017,02,14,07,42,2.40
2017,02,14,07,43,2.40
2017,02,14,07,44,2.40
2017,02,14,07,45,2.40
2017,02,14,07,46,2.40
2017,02,14,07,47,2.40
2017,02,14,07,48,2.40
2017,02,14,07,49,2.40
2017,02,14,07,50,2.40
2017,02,14,07,51,2.40
2017,02,14,07,52,2.50
2017,02,14,07,53,2.50
2017,02,14,07,54,2.50
2017,02,14,07,55,2.50
2017,02,14,07,56,2.50
2017,02,14,07,57,2.50
2017,02,14,07,58,2.50
2017,02,14,07,59,2.50
2017,02,14,08,00,2.50
2017,02,14,08,01,2.50
2017,02,14,08,02,2.50
2017,02,14,08,03,2.50
2017,02,14,08,04,2.50
2017,02,14,08,05,2.50
2017,02,14,08,06,2.50
2017,02,14,08,07,2.60
2017,02,14,08,08,2.60
2017,02,14,08,09,2.60
2017,02,14,08,10,2.60
2017,02,14,08,11,2.60
2017,02,14,08,12,2.60
2017,02,14,08,13,2.70
2017,02,14,08,14,2.70
2017,02,14,08,15,2.70
2017,02,14,08,16,2.70
2017,02,14,08,17,2.70
2017,02,14,08,18,2.70
2017,02,14,08,19,2.70
2017,02,14,08,20,2.80
2017,02,14,08,21,2.80
2017,02,14,08,22,2.80
2017,02,14,08,23,2.90
2017,02,14,08,24,2.90
2017,02,14,08,25,2.90
2017,02,14,08,26,2.90
2017,02,14,08,27,2.90
2017,02,14,08,28,2.90
2017,02,14,08,29,2.90
2017,02,14,08,30,2.90
2017,02,14,08,31,2.90
2017,02,14,08,32,3.00
2017,02,14,08,33,3.10
2017,02,14,08,34,3.10
2017,02,14,08,35,3.10
2017,02,14,08,36,3.10
2017,02,14,08,37,3.10
2017,02,14,08,38,3.10
2017,02,14,08,39,3.10
2017,02,14,08,40,3.10
2017,02,14,08,41,3.10
2017,02,14,08,42,3.10
2017,02,14,08,43,3.10
2017,02,14,08,44,3.10
2017,02,14,08,45,3.20
2017,02,14,08,46,3.20
2017,02,14,08,47,3.20
2017,02,14,08,48,3.20
2017,02,14,08,49,3.20
2017,02,14,08,50,3.20
2017,02,14,08,51,3.20
2017,02,14,08,52,3.30
2017,02,14,08,53,3.30
2017,02,14,08,54,3.30
2017,02,14,08,55,3.30
2017,02,14,08,56,3.40
2017,02,14,08,57,3.40
2017,02,14,08,58,3.50
2017,02,14,08,59,3.50
2017,02,14,09,00,3.50
2017,02,14,09,01,3.60
2017,02,14,09,02,3.60
2017,02,14,09,03,3.70
2017,02,14,09,04,3.70
2017,02,14,09,05,3.70
2017,02,14,09,06,3.80
2017,02,14,09,07,3.80
2017,02,14,09,08,3.80
2017,02,14,09,09,3.80
2017,02,14,09,10,3.90
2017,02,14,09,11,3.90
2017,02,14,09,12,4.00
2017,02,14,09,13,4.00
2017,02,14,09,14,4.00
2017,02,14,09,15,4.10
2017,02,14,09,16,4.10
2017,02,14,09,17,4.20
2017,02,14,09,18,4.20
2017,02,14,09,19,4.20
2017,02,14,09,20,4.20
2017,02,14,09,21,4.30
2017,02,14,09,22,4.30
2017,02,14,09,23,4.40
2017,02,14,09,24,4.50
2017,02,14,09,25,4.50
2017,02,14,09,26,4.60
2017,02,14,09,27,4.60
2017,02,14,09,28,4.60
2017,02,14,09,29,4.60
2017,02,14,09,30,4.60
2017,02,14,09,31,4.60
2017,02,14,09,32,4.60
2017,02,14,09,33,4.70
2017,02,14,09,34,4.70
2017,02,14,09,35,4.70
2017,02,14,09,36,4.80
2017,02,14,09,37,4.80
2017,02,14,09,38,4.90
2017,02,14,09,39,4.90
2017,02,14,09,40,4.90
2017,02,14,09,41,5.10
2017,02,14,09,42,5.10
2017,02,14,09,43,5.10
2017,02,14,09,44,5.30
2017,02,14,09,45,5.30
2017,02,14,09,46,5.40
2017,02,14,09,47,5.50
2017,02,14,09,48,5.60
2017,02,14,09,49,5.70
2017,02,14,09,50,5.70
2017,02,14,09,51,5.80
2017,02,14,09,52,5.90
2017,02,14,09,53,6.00
2017,02,14,09,54,6.10
2017,02,14,09,55,6.20
2017,02,14,09,56,6.30
2017,02,14,09,57,6.30
2017,02,14,09,58,6.40
2017,02,14,09,59,6.40
2017,02,14,10,00,6.50
2017,02,14,10,01,6.60
2017,02,14,10,02,6.60
2017,02,14,10,03,6.70
2017,02,14,10,04,6.80
2017,02,14,10,05,6.80
2017,02,14,10,06,6.90
2017,02,14,10,07,6.90
2017,02,14,10,08,7.00
2017,02,14,10,09,7.00
2017,02,14,10,10,7.10
2017,02,14,10,11,7.10
2017,02,14,10,12,7.20
2017,02,14,10,13,7.20
2017,02,14,10,14,7.30
2017,02,14,10,15,7.30
2017,02,14,10,16,7.30
2017,02,14,10,17,7.30
2017,02,14,10,18,7.40
2017,02,14,10,19,7.40
2017,02,14,10,20,7.40
2017,02,14,10,21,7.50
2017,02,14,10,22,7.50
2017,02,14,10,23,7.50
2017,02,14,10,24,7.60
2017,02,14,10,25,7.60
2017,02,14,10,26,7.60
2017,02,14,10,27,7.70
2017,02,14,10,28,7.70
2017,02,14,10,29,7.80
2017,02,14,10,30,7.80
2017,02,14,10,31,7.80
2017,02,14,10,32,7.90
2017,02,14,10,33,8.00
2017,02,14,10,34,8.00
2017,02,14,10,35,8.10
2017,02,14,10,36,8.10
2017,02,14,10,37,8.10
2017,02,14,10,38,8.20
2017,02,14,10,39,8.20
2017,02,14,10,40,8.20
2017,02,14,10,41,8.20
2017,02,14,10,42,8.30
2017,02,14,10,43,8.30
2017,02,14,10,44,8.30
2017,02,14,10,45,8.30
2017,02,14,10,46,8.40
2017,02,14,10,47,8.40
2017,02,14,10,48,8.40
2017,02,14,10,49,8.50
2017,02,14,10,50,8.50
2017,02,14,10,51,8.50
2017,02,14,10,52,8.50
2017,02,14,10,53,8.60
2017,02,14,10,54,8.60
2017,02,14,10,55,8.60
2017,02,14,10,56,8.60
2017,02,14,10,57,8.60
2017,02,14,10,58,8.60
2017,02,14,10,59,8.70
2017,02,14,11,00,8.70
2017,02,14,11,01,8.70
2017,02,14,11,02,8.70
2017,02,14,11,03,8.70
2017,02,14,11,04,8.70
2017,02,14,11,05,8.70
2017,02,14,11,06,8.70
2017,02,14,11,07,8.70
2017,02,14,11,08,8.70
2017,02,14,11,09,8.70
2017,02,14,11,10,8.80
2017,02,14,11,11,8.80
2017,02,14,11,12,8.80
2017,02,14,11,13,8.80
2017,02,14,11,14,8.90
2017,02,14,11,15,8.90
2017,02,14,11,16,8.90
2017,02,14,11,17,8.90
2017,02,14,11,18,8.90
2017,02,14,11,19,8.90
2017,02,14,11,20,8.90
2017,02,14,11,21,9.00
2017,02,14,11,22,9.00
2017,02,14,11,23,9.00
2017,02,14,11,24,9.00
2017,02,14,11,25,9.00
2017,02,14,11,26,9.00
2017,02,14,11,27,9.10
2017,02,14,11,28,9.10
2017,02,14,11,29,9.10
2017,02,14,11,30,9.10
2017,02,14,11,31,9.10
2017,02,14,11,32,9.10
2017,02,14,11,33,9.10
2017,02,14,11,34,9.10
2017,02,14,11,35,9.20
2017,02,14,11,36,9.20
2017,02,14,11,37,9.20
2017,02,14,11,38,9.20
2017,02,14,11,39,9.20
2017,02,14,11,40,9.20
2017,02,14,11,41,9.20
2017,02,14,11,42,9.20
2017,02,14,11,43,9.20
2017,02,14,11,44,9.20
2017,02,14,11,45,9.20
2017,02,14,11,46,9.20
2017,02,14,11,47,9.20
2017,02,14,11,48,9.30
2017,02,14,11,49,9.30
2017,02,14,11,50,9.30
2017,02,14,11,51,9.40
2017,02,14,11,52,9.40
2017,02,14,11,53,9.40
2017,02,14,11,54,9.40
2017,02,14,11,55,9.40
2017,02,14,11,56,9.40
2017,02,14,11,57,9.40
2017,02,14,11,58,9.40
2017,02,14,11,59,9.50
2017,02,14,12,00,9.50
2017,02,14,12,01,9.50
2017,02,14,12,02,9.50
2017,02,14,12,03,9.50
2017,02,14,12,04,9.50
2017,02,14,12,05,9.40
2017,02,14,12,06,9.40
2017,02,14,12,07,9.40
2017,02,14,12,08,9.40
2017,02,14,12,09,9.40
2017,02,14,12,10,9.30
2017,02,14,12,11,9.30
2017,02,14,12,12,9.30
2017,02,14,12,13,9.30
2017,02,14,12,14,9.30
2017,02,14,12,15,9.40
2017,02,14,12,16,9.40
2017,02,14,12,17,9.40
2017,02,14,12,18,9.40
2017,02,14,12,19,9.40
2017,02,14,12,20,9.30
2017,02,14,12,21,9.30
2017,02,14,12,22,9.30
2017,02,14,12,23,9.30
2017,02,14,12,24,9.30
2017,02,14,12,25,9.30
2017,02,14,12,26,9.30
2017,02,14,12,27,9.30
2017,02,14,12,28,9.30
2017,02,14,12,29,9.30
2017,02,14,12,30,9.30
2017,02,14,12,31,9.30
2017,02,14,12,32,9.30
2017,02,14,12,33,9.30
2017,02,14,12,34,9.30
2017,02,14,12,35,9.30
2017,02,14,12,36,9.30
2017,02,14,12,37,9.30
2017,02,14,12,38,9.30
2017,02,14,12,39,9.20
2017,02,14,12,40,9.20
2017,02,14,12,41,9.20
2017,02,14,12,42,9.20
2017,02,14,12,43,9.20
2017,02,14,12,44,9.20
2017,02,14,12,45,9.20
2017,02,14,12,46,9.20
2017,02,14,12,47,9.20
2017,02,14,12,48,9.20
2017,02,14,12,49,9.30
2017,02,14,12,50,9.30
2017,02,14,12,51,9.30
2017,02,14,12,52,9.30
2017,02,14,12,53,9.40
2017,02,14,12,54,9.40
2017,02,14,12,55,9.40
2017,02,14,12,56,9.40
2017,02,14,12,57,9.40
2017,02,14,12,58,9.40
2017,02,14,12,59,9.40
2017,02,14,13,00,9.40
2017,02,14,13,01,9.40
2017,02,14,13,02,9.40
2017,02,14,13,03,9.40
2017,02,14,13,04,9.40
2017,02,14,13,05,9.40
2017,02,14,13,06,9.40
2017,02,14,13,07,9.40
2017,02,14,13,08,9.40
2017,02,14,13,09,9.40
2017,02,14,13,10,9.50
2017,02,14,13,11,9.50
2017,02,14,13,12,9.50
2017,02,14,13,13,9.50
2017,02,14,13,14,9.50
2017,02,14,13,15,9.50
2017,02,14,13,16,9.60
2017,02,14,13,17,9.60
2017,02,14,13,18,9.60
2017,02,14,13,19,9.60
2017,02,14,13,20,9.70
2017,02,14,13,21,9.70
2017,02,14,13,22,9.70
2017,02,14,13,23,9.70
2017,02,14,13,24,9.70
2017,02,14,13,25,9.70
2017,02,14,13,26,9.70
2017,02,14,13,27,9.70
2017,02,14,13,28,9.70
2017,02,14,13,29,9.80
2017,02,14,13,30,9.80
2017,02,14,13,31,9.90
2017,02,14,13,32,9.90
2017,02,14,13,33,9.90
2017,02,14,13,34,9.90
2017,02,14,13,35,9.90
2017,02,14,13,36,9.90
2017,02,14,13,37,9.90
2017,02,14,13,38,9.90
2017,02,14,13,39,9.90
2017,02,14,13,40,9.90
2017,02,14,13,41,9.90
2017,02,14,13,42,9.90
2017,02,14,13,43,9.90
2017,02,14,13,44,9.90
2017,02,14,13,45,9.90
2017,02,14,13,46,9.90
2017,02,14,13,47,9.90
2017,02,14,13,48,9.90
2017,02,14,13,49,9.90
2017,02,14,13,50,9.90
2017,02,14,13,51,9.90
2017,02,14,13,52,9.90
2017,02,14,13,53,10.00
2017,02,14,13,54,10.10
2017,02,14,13,55,10.10
2017,02,14,13,56,10.10
2017,02,14,13,57,10.10
2017,02,14,13,58,10.10
2017,02,14,13,59,10.10
2017,02,14,14,00,10.10
2017,02,14,14,01,10.10
2017,02,14,14,02,10.10
2017,02,14,14,03,10.10
2017,02,14,14,04,10.10
2017,02,14,14,05,10.10
2017,02,14,14,06,10.10
2017,02,14,14,07,10.10
2017,02,14,14,08,10.10
2017,02,14,14,09,10.10
2017,02,14,14,10,10.20
2017,02,14,14,11,10.20
2017,02,14,14,12,10.20
2017,02,14,14,13,10.20
2017,02,14,14,14,10.20
2017,02,14,14,15,10.20
2017,02,14,14,16,10.20
2017,02,14,14,17,10.30
2017,02,14,14,18,10.30
2017,02,14,14,19,10.30
2017,02,14,14,20,10.30
2017,02,14,14,21,10.30
2017,02,14,14,22,10.30
2017,02,14,14,23,10.30
2017,02,14,14,24,10.30
2017,02,14,14,25,10.30
2017,02,14,14,26,10.20
2017,02,14,14,27,10.20
2017,02,14,14,28,10.20
2017,02,14,14,29,10.20
2017,02,14,14,30,10.20
2017,02,14,14,31,10.20
2017,02,14,14,32,10.20
2017,02,14,14,33,10.20
2017,02,14,14,34,10.20
2017,02,14,14,35,10.20
2017,02,14,14,36,10.20
2017,02,14,14,37,10.30
2017,02,14,14,38,10.30
2017,02,14,14,39,10.30
2017,02,14,14,40,10.30
2017,02,14,14,41,10.30
2017,02,14,14,42,10.30
2017,02,14,14,43,10.30
2017,02,14,14,44,10.30
2017,02,14,14,45,10.30
2017,02,14,14,46,10.30
2017,02,14,14,47,10.30
2017,02,14,14,48,10.20
2017,02,14,14,49,10.20
2017,02,14,14,50,10.20
2017,02,14,14,51,10.20
2017,02,14,14,52,10.20
2017,02,14,14,53,10.20
2017,02,14,14,54,10.20
2017,02,14,14,55,10.20
2017,02,14,14,56,10.20
2017,02,14,14,57,10.20
2017,02,14,14,58,10.20
2017,02,14,14,59,10.20
2017,02,14,15,00,10.20
2017,02,14,15,01,10.20
2017,02,14,15,02,10.30
2017,02,14,15,03,10.30
2017,02,14,15,04,10.30
2017,02,14,15,05,10.30
2017,02,14,15,06,10.30
2017,02,14,15,07,10.30
2017,02,14,15,08,10.30
2017,02,14,15,09,10.30
2017,02,14,15,10,10.30
2017,02,14,15,11,10.30
2017,02,14,15,12,10.40
2017,02,14,15,13,10.40
2017,02,14,15,14,10.40
2017,02,14,15,15,10.40
2017,02,14,15,16,10.40
2017,02,14,15,17,10.40
2017,02,14,15,18,10.40
2017,02,14,15,19,10.40
2017,02,14,15,20,10.40
2017,02,14,15,21,10.40
2017,02,14,15,22,10.40
2017,02,14,15,23,10.40
2017,02,14,15,24,10.40
2017,02,14,15,25,10.40
2017,02,14,15,26,10.50
2017,02,14,15,27,10.60
2017,02,14,15,28,10.60
2017,02,14,15,29,10.60
2017,02,14,15,30,10.60
2017,02,14,15,31,10.60
2017,02,14,15,32,10.60
2017,02,14,15,33,10.60
2017,02,14,15,34,10.60
2017,02,14,15,35,10.60
2017,02,14,15,36,10.60
2017,02,14,15,37,10.60
2017,02,14,15,38,10.60
2017,02,14,15,39,10.60
2017,02,14,15,40,10.60
2017,02,14,15,41,10.40
2017,02,14,15,42,10.30
2017,02,14,15,43,10.20
2017,02,14,15,44,10.00
2017,02,14,15,45,9.90
2017,02,14,15,46,9.80
2017,02,14,15,47,9.70
2017,02,14,15,48,9.60
2017,02,14,15,49,9.50
2017,02,14,15,50,9.40
2017,02,14,15,51,9.40
2017,02,14,15,52,9.30
2017,02,14,15,53,9.20
2017,02,14,15,54,9.20
2017,02,14,15,55,9.10
2017,02,14,15,56,9.00
2017,02,14,15,57,9.00
2017,02,14,15,58,9.00
2017,02,14,15,59,9.00
2017,02,14,16,00,8.90
2017,02,14,16,01,8.90
2017,02,14,16,02,8.90
2017,02,14,16,03,8.90
2017,02,14,16,04,8.80
2017,02,14,16,05,8.80
2017,02,14,16,06,8.80
2017,02,14,16,07,8.70
2017,02,14,16,08,8.70
2017,02,14,16,09,8.70
2017,02,14,16,10,8.70
2017,02,14,16,11,8.70
2017,02,14,16,12,8.70
2017,02,14,16,13,8.70
2017,02,14,16,14,8.70
2017,02,14,16,15,8.70
2017,02,14,16,16,8.70
2017,02,14,16,17,8.70
2017,02,14,16,18,8.70
2017,02,14,16,19,8.70
2017,02,14,16,20,8.70
2017,02,14,16,21,8.70
2017,02,14,16,22,8.70
2017,02,14,16,23,8.70
2017,02,14,16,24,8.70
2017,02,14,16,25,8.70
2017,02,14,16,26,8.70
2017,02,14,16,27,8.70
2017,02,14,16,28,8.70
2017,02,14,16,29,8.70
2017,02,14,16,30,8.70
2017,02,14,16,31,8.70
2017,02,14,16,32,8.70
2017,02,14,16,33,8.70
2017,02,14,16,34,8.70
2017,02,14,16,35,8.60
2017,02,14,16,36,8.60
2017,02,14,16,37,8.60
2017,02,14,16,38,8.60
2017,02,14,16,39,8.50
2017,02,14,16,40,8.50
2017,02,14,16,41,8.50
2017,02,14,16,42,8.50
2017,02,14,16,43,8.50
2017,02,14,16,44,8.50
2017,02,14,16,45,8.40
2017,02,14,16,46,8.40
2017,02,14,16,47,8.40
2017,02,14,16,48,8.40
2017,02,14,16,49,8.40
2017,02,14,16,50,8.40
2017,02,14,16,51,8.40
2017,02,14,16,52,8.40
2017,02,14,16,53,8.40
2017,02,14,16,54,8.40
2017,02,14,16,55,8.40
2017,02,14,16,56,8.40
2017,02,14,16,57,8.40
2017,02,14,16,58,8.40
2017,02,14,16,59,8.40
2017,02,14,17,00,8.40
2017,02,14,17,01,8.40
2017,02,14,17,02,8.40
2017,02,14,17,03,8.40
2017,02,14,17,04,8.40
2017,02,14,17,05,8.40
2017,02,14,17,06,8.40
2017,02,14,17,07,8.40
2017,02,14,17,08,8.40
2017,02,14,17,09,8.30
2017,02,14,17,10,8.30
2017,02,14,17,11,8.30
2017,02,14,17,12,8.20
2017,02,14,17,13,8.20
2017,02,14,17,14,8.20
2017,02,14,17,15,8.20
2017,02,14,17,16,8.10
2017,02,14,17,17,8.10
2017,02,14,17,18,8.10
2017,02,14,17,19,8.10
2017,02,14,17,20,8.10
2017,02,14,17,21,8.10
2017,02,14,17,22,8.00
2017,02,14,17,23,8.00
2017,02,14,17,24,8.00
2017,02,14,17,25,8.00
2017,02,14,17,26,8.00
2017,02,14,17,27,8.10
2017,02,14,17,28,8.10
2017,02,14,17,29,8.10
2017,02,14,17,30,8.10
2017,02,14,17,31,8.30
2017,02,14,17,32,8.40
2017,02,14,17,33,8.50
2017,02,14,17,34,8.60
2017,02,14,17,35,8.70
2017,02,14,17,36,8.70
2017,02,14,17,37,8.70
2017,02,14,17,38,8.80
2017,02,14,17,39,8.80
2017,02,14,17,40,8.80
2017,02,14,17,41,8.90
2017,02,14,17,42,8.90
2017,02,14,17,43,8.90
2017,02,14,17,44,8.90
2017,02,14,17,45,8.90
2017,02,14,17,46,9.00
2017,02,14,17,47,8.90
2017,02,14,17,48,8.90
2017,02,14,17,49,8.80
2017,02,14,17,50,8.70
2017,02,14,17,51,8.70
2017,02,14,17,52,8.60
2017,02,14,17,53,8.40
2017,02,14,17,54,8.30
2017,02,14,17,55,8.20
2017,02,14,17,56,8.20
2017,02,14,17,57,8.10
2017,02,14,17,58,8.00
2017,02,14,17,59,8.00
2017,02,14,18,00,7.90